Date String (YYYY-MM-DD hh:mm:ss) UTC,Instrument flags,Ambient pressure (hPa),Sample flow (lpm),Bypass flow (lpm),Sample temperature (°C),Ambient temperature (°C),ASC tube jacket temperature (°C),LED temperature (°C),Box temperature (°C),Sample RH (%),Span deviation,Mass concentration (μg/m³),Mass concentration (μg/m³),Mass concentration (μg/m³)
DateTimeUTC,F1_M11,P_M11,Q1_M11,Q2_M11,T1_M11,T2_M11,T3_M11,T4_M11,T5_M11,U1_M11,ZSPAN_M11,X0_M11,X2_M11,X1_M11
2022-08-15 06:00:00,,0829.3,4.99,0.00,31.7,28.8,00.0,39.3,32.3,33.1,0000.0,0006.91,0004.17,0003.71
2022-08-15 06:01:00,,0829.2,4.99,0.00,31.7,28.9,00.0,39.4,32.3,32.1,0000.0,0006.80,0004.11,0003.70
2022-08-15 06:02:00,,0829.3,5.01,0.00,31.8,28.8,00.0,39.5,32.2,31.8,0000.0,0006.99,0004.10,0003.70
2022-08-15 06:03:00,,0829.2,5.00,0.00,31.8,28.2,00.0,39.5,32.0,31.8,0000.0,0006.82,0004.06,0003.69
2022-08-15 06:04:00,,0829.1,4.99,0.00,31.7,27.8,00.0,39.5,31.9,32.1,0000.0,0006.77,0004.05,0003.69
2022-08-15 06:05:00,,0829.0,5.00,0.00,31.6,27.7,00.0,39.5,31.9,32.4,0000.0,0006.51,0004.00,0003.69
2022-08-15 06:06:00,,0829.0,5.01,0.00,31.4,27.7,00.0,39.5,31.9,32.5,0000.0,0006.48,0003.98,0003.71
2022-08-15 06:07:00,,0828.9,5.01,0.00,31.4,27.8,00.0,39.5,31.8,32.4,0000.0,0006.54,0004.02,0003.73
2022-08-15 06:08:00,,0828.9,5.00,0.00,31.3,27.9,00.0,39.6,31.8,32.5,0000.0,0006.54,0004.04,0003.75
2022-08-15 06:09:00,,0829.2,5.00,0.00,31.2,28.1,00.0,39.5,31.9,32.6,0000.0,0006.78,0004.11,0003.77
2022-08-15 06:10:00,,0828.7,5.00,0.00,31.2,28.2,00.0,39.5,31.9,32.5,0000.0,0006.99,0004.15,0003.78
2022-08-15 06:11:00,,0829.1,4.99,0.00,31.1,28.3,00.0,39.5,31.9,32.4,0000.0,0007.25,0004.17,0003.79
2022-08-15 06:12:00,,0828.7,5.00,0.00,31.1,28.4,00.0,39.5,32.0,32.6,0000.0,0007.32,0004.19,0003.80
2022-08-15 06:13:00,,0828.6,5.00,0.00,31.0,28.5,00.0,39.5,32.0,32.9,0000.0,0007.15,0004.21,0003.82
2022-08-15 06:14:00,,0828.5,5.00,0.00,31.0,28.6,00.0,39.5,32.0,32.5,0000.0,0007.31,0004.25,0003.84
2022-08-15 06:15:00,,0828.4,5.00,0.00,31.0,28.7,00.0,39.5,32.0,32.0,0000.0,0007.41,0004.25,0003.84
2022-08-15 06:16:00,,0828.4,5.01,0.00,31.0,28.8,00.0,39.5,32.0,32.9,0000.0,0007.48,0004.27,0003.84
2022-08-15 06:17:00,,0828.3,4.99,0.00,31.0,28.8,00.0,39.5,32.1,33.2,0000.0,0007.46,0004.28,0003.84
2022-08-15 06:18:00,,0828.3,5.00,0.00,30.9,28.5,00.0,39.5,31.9,32.8,0000.0,0007.40,0004.25,0003.83
2022-08-15 06:19:00,,0828.2,4.99,0.00,30.8,27.7,00.0,39.4,31.7,33.0,0000.0,0007.50,0004.26,0003.82
2022-08-15 06:20:00,,0828.3,5.00,0.00,30.7,27.2,00.0,39.3,31.6,33.6,0000.0,0007.47,0004.23,0003.81
2022-08-15 06:21:00,,0828.1,5.01,0.00,30.6,27.2,00.0,39.3,31.5,33.4,0000.0,0007.59,0004.21,0003.81
2022-08-15 06:22:00,,0828.0,5.00,0.00,30.5,27.2,00.0,39.2,31.4,34.0,0000.0,0007.66,0004.24,0003.83
2022-08-15 06:23:00,,0828.0,5.00,0.00,30.4,27.4,00.0,39.2,31.5,34.3,0000.0,0007.65,0004.27,0003.84
2022-08-15 06:24:00,,0827.9,5.00,0.00,30.4,27.5,00.0,39.2,31.5,35.4,0000.0,0007.68,0004.27,0003.83
2022-08-15 06:25:00,,0827.9,5.02,0.00,30.5,27.7,00.0,39.1,31.7,35.4,0000.0,0007.64,0004.25,0003.82
2022-08-15 06:26:00,,0827.9,4.99,0.00,30.8,27.9,00.0,39.1,31.8,34.9,0000.0,0007.59,0004.26,0003.81
2022-08-15 06:27:00,,0827.9,5.01,0.00,31.0,28.0,00.0,39.1,31.9,34.9,0000.0,0007.53,0004.24,0003.81
2022-08-15 06:28:00,,0827.9,5.00,0.00,31.2,28.2,00.0,39.1,32.0,34.6,0000.0,0007.51,0004.21,0003.79
2022-08-15 06:29:00,,0827.9,5.01,0.00,31.3,28.3,00.0,39.2,32.0,34.6,0000.0,0007.56,0004.21,0003.78
2022-08-15 06:30:00,,0827.8,5.00,0.00,31.3,28.4,00.0,39.2,32.0,34.6,0000.0,0007.49,0004.21,0003.77
2022-08-15 06:31:00,,0827.7,5.00,0.00,31.3,28.5,00.0,39.3,32.0,34.8,0000.0,0007.41,0004.18,0003.75
2022-08-15 06:32:00,,0827.7,5.00,0.00,31.3,28.6,00.0,39.3,32.0,33.9,0000.0,0006.97,0004.13,0003.72
2022-08-15 06:33:00,,0827.6,5.00,0.00,31.3,28.7,00.0,39.4,32.0,33.7,0000.0,0006.67,0004.10,0003.71
2022-08-15 06:34:00,,0827.6,5.01,0.00,31.3,28.7,00.0,39.4,32.0,34.2,0000.0,0006.59,0004.08,0003.70
2022-08-15 06:35:00,,0827.7,4.99,0.00,31.3,28.8,00.0,39.4,32.1,34.4,0000.0,0006.66,0004.08,0003.70
2022-08-15 06:36:00,,0827.8,4.99,0.00,31.2,28.9,00.0,39.5,32.1,34.2,0000.0,0006.85,0004.11,0003.71
2022-08-15 06:37:00,,0827.9,5.01,0.00,31.2,28.9,00.0,39.5,32.1,34.7,0000.0,0007.07,0004.14,0003.72
2022-08-15 06:38:00,,0827.9,5.01,0.00,31.3,29.0,00.0,39.5,32.2,35.8,0000.0,0007.15,0004.15,0003.72
2022-08-15 06:39:00,,0827.9,5.01,0.00,31.5,29.0,00.0,39.6,32.4,35.5,0000.0,0007.42,0004.17,0003.73
2022-08-15 06:40:00,,0828.0,4.99,0.00,31.8,28.9,00.0,39.6,32.4,34.2,0000.0,0007.70,0004.18,0003.73
2022-08-15 06:41:00,,0828.1,4.99,0.00,31.9,28.1,00.0,39.5,32.1,33.8,0000.0,0007.96,0004.18,0003.73
2022-08-15 06:42:00,,0828.1,5.00,0.00,31.9,27.5,00.0,39.5,32.0,33.9,0000.0,0007.96,0004.17,0003.75
2022-08-15 06:43:00,,0828.1,5.01,0.00,31.8,27.2,00.0,39.5,31.9,33.8,0000.0,0007.98,0004.20,0003.76
2022-08-15 06:44:00,,0828.1,5.00,0.00,31.6,27.3,00.0,39.6,31.8,34.1,0000.0,0008.02,0004.22,0003.77
2022-08-15 06:45:00,,0828.1,5.00,0.00,31.5,27.4,00.0,39.6,31.8,34.2,0000.0,0008.07,0004.24,0003.77
2022-08-15 06:46:00,,0828.1,5.00,0.00,31.5,27.6,00.0,39.6,31.8,34.2,0000.0,0007.98,0004.23,0003.77
2022-08-15 06:47:00,,0828.1,4.99,0.00,31.4,27.7,00.0,39.6,31.8,34.3,0000.0,0007.87,0004.20,0003.78
2022-08-15 06:48:00,,0828.1,5.00,0.00,31.3,27.9,00.0,39.6,31.9,34.3,0000.0,0007.69,0004.16,0003.78
2022-08-15 06:49:00,,0828.1,5.01,0.00,31.3,28.1,00.0,39.6,31.9,34.6,0000.0,0007.72,0004.18,0003.79
2022-08-15 06:50:00,,0828.1,5.00,0.00,31.2,28.2,00.0,39.6,31.9,34.6,0000.0,0007.91,0004.22,0003.81
2022-08-15 06:51:00,,0828.0,5.00,0.00,31.2,28.3,00.0,39.6,32.0,34.5,0000.0,0007.67,0004.25,0003.83
2022-08-15 06:52:00,,0828.1,4.99,0.00,31.2,28.5,00.0,39.6,32.0,34.4,0000.0,0007.42,0004.24,0003.85
2022-08-15 06:53:00,,0828.1,5.01,0.00,31.1,28.6,00.0,39.6,32.0,33.5,0000.0,0007.48,0004.26,0003.86
2022-08-15 06:54:00,,0828.1,4.99,0.00,31.1,28.7,00.0,39.6,32.0,33.8,0000.0,0007.44,0004.27,0003.88
2022-08-15 06:55:00,,0828.1,5.01,0.00,31.1,28.7,00.0,39.6,32.0,33.5,0000.0,0007.39,0004.26,0003.90
2022-08-15 06:56:00,,0828.0,5.00,0.00,31.1,28.8,00.0,39.6,32.1,33.4,0000.0,0007.40,0004.27,0003.91
2022-08-15 06:57:00,,0828.0,5.00,0.00,31.0,28.9,00.0,39.6,32.1,34.0,0000.0,0007.49,0004.31,0003.93
2022-08-15 06:58:00,,0828.0,5.01,0.00,31.0,28.9,00.0,39.6,32.1,33.9,0000.0,0007.67,0004.39,0003.95
2022-08-15 06:59:00,,0828.0,4.99,0.00,31.0,29.0,00.0,39.6,32.1,34.3,0000.0,0007.73,0004.42,0003.97
